Location: Zilina
(0.0000°N, 18.7333°E)
Time: 18:59:41
(UTC+02:00)

Cosmos 2297 - Pass Details

Date: 19 February 2019
Orbit: 835 x 860 km, 71.0° (Epoch: 15 October)

Event Time Altitude Azimuth Distance (km) Brightness Sun altitude
Rises 19:15:45 0° 184° (S) 3,384 7.0 -18.8°
Reaches altitude 10° 19:18:17 10° 178° (S) 2,451 6.2 -19.5°
Maximum altitude 19:23:39 46° 105° (ESE) 1,110 3.9 -20.8°
Enters shadow 19:24:39 42° 75° (ENE) 1,183 3.9 -21.0°
